Regional Weather Roundup
Issued by NWS

Home | Current Version | Previous Version | Graphics & Text | Print | Product List | Glossary On
Versions: 1 2 3 4 5 6 7 8 9 10 11 12 13 14 15 16 17 18 19 20 21 22 23 24 25 26 27 28 29 30 31 32 33 34 35 36 37 38 39 40 41 42 43 44 45 46 47 48 49 50
000
ASUS45 KTFX 210904
RWRMT
MONTANA HOURLY WEATHER ROUNDUP
NATIONAL WEATHER SERVICE GREAT FALLS MT
304 AM MDT MON APR 21 2014

NOTE: "FAIR" INDICATES FEW OR NO CLOUDS BELOW 12000 FEET WITH NO
SIGNIFICANT WEATHER AND/OR OBSTRUCTIONS TO VISIBILITY.

* THESE STATIONS ARE NOT UNDER NWS QUALITY CONTROL. THEY DO NOT
   REPORT WEATHER SUCH AS PRECIPITATION OR FOG.

MTZ001>007-043-211000-
WEST OF THE DIVIDE
CITY           SKY/WX    TMP DP  RH WIND       PRES   REMARKS
KALISPELL      CLEAR     27  23  85 CALM      30.23S
MISSOULA       PTCLDY    34  25  70 W3        30.27R
BUTTE          PTCLDY    30  19  64 CALM      30.28R
MULLAN PASS    PTCLDY    36  21  54 S7        30.21S WCI  30
* ESSEX        N/A       29  25  85 E1         N/A
* LINCOLN      N/A       27  20  75 W2         N/A
* LOOKOUT PASS N/A       32  24  72 S1         N/A
* POLSON       N/A       35  20  54 SE2        N/A
* SEELEY LAKE  N/A       25  21  85 N/A        N/A
* THOMP F APT  PTCLDY    35  12  38 NE2G8      N/A
$$

MTZ008-052>055-211000-
SOUTHWEST MONTANA
CITY           SKY/WX    TMP DP  RH WIND       PRES   REMARKS
BOZEMAN        PTCLDY    28  19  69 E3        30.25S
DILLON         MOCLDY    37  14  39 S7        30.25S WCI  32
W YELLOWSTONE  N/A       27  21  78 N/A        N/A
* THREE FORKS  MOCLDY    34  19  54 N/A        N/A
* BOULDER HILL N/A       39  13  34 SW7        N/A   WCI  34
* MONIDA PASS  N/A       30  13  49 SW2        N/A
* RAYNOLDS PAS N/A       31   2  29 N/A        N/A
* WHITEHALL    N/A       40  16  38 NW2G8      N/A
* WISE RIVER   N/A       31  20  64 NW3G9      N/A
$$

MTZ009>010-012-014-046-048-049-054-211000-
EAST SLOPES AND CENTRAL MONTANA
CITY           SKY/WX    TMP DP  RH WIND       PRES   REMARKS
CUT BANK       CLEAR     39  19  45 W16       30.16S WCI  30
GREAT FALLS    PTCLDY    36  19  50 SW5       30.19S WCI  32
HELENA         MOCLDY    45  19  35 CALM      30.22S
MALMSTROM AFB  MOCLDY    34  19  54 S8        30.17S WCI  27
* CONRAD       CLEAR     25  19  78 N/A        N/A
* DEARBORN     N/A       42  19  40 SE1G9      N/A
* MONARCH      N/A       34  10  37 S5         N/A   WCI  29
* PENDROY      N/A       39  19  45 W8         N/A   WCI  33
* ROGERS PASS  N/A       38  15  39 E6G13      N/A   WCI  33
* SAINT MARY   N/A       40  17  39 S7G21      N/A   WCI  35
* SWEET GRASS  N/A       37  20  50 W12        N/A   WCI  29
$$

MTZ011-013-016-021-035-040-045-047-050-051-211000-
NORTH CENTRAL MONTANA
CITY           SKY/WX    TMP DP  RH WIND       PRES   REMARKS
HAVRE          PTCLDY    34  23  64 S9        30.17S WCI  27
LEWISTOWN      MOCLDY    34  21  59 SE5       30.21S WCI  29
* CHESTER      N/A       36  22  57 N/A        N/A
* DENTON       N/A       32  19  59 E5         N/A   WCI  27
* GEYSER       N/A       32  18  56 S9         N/A   WCI  24
* JUDITH GAP   N/A       36  15  42 N/A        N/A
* LOMA         N/A       39  21  48 SW2        N/A
$$

MTZ017>020-022>027-061-062-211000-
NORTHEAST MONTANA
CITY           SKY/WX    TMP DP  RH WIND       PRES   REMARKS
GLASGOW        CLOUDY    36  27  70 W5        30.15R WCI  32
GLENDIVE       PTCLDY    37  27  67 NW10      30.16S WCI  30
JORDAN         PTCLDY    32  23  69 W7        30.17R WCI  25
SIDNEY         PTCLDY    39  30  70 W9        30.15R WCI  33
WOLF POINT     MOCLDY    36  27  70 W5        30.15R WCI  32
* BEAVER HILL  N/A       40  24  53 NW3        N/A
* CIRCLE       N/A       37  26  64 N/A        N/A
* LINDSAY DVD  N/A       38  24  57 NW7        N/A   WCI  33
* NAVAJO       N/A       35  33  92 N13G18     N/A   WCI  26
$$

MTZ028>042-056>058-211000-
SOUTHCENTRAL AND SOUTHEAST MONTANA
CITY           SKY/WX    TMP DP  RH WIND       PRES   REMARKS
BAKER          CLEAR     34  27  76 CALM      30.16R
BILLINGS       PTCLDY    39  19  45 S8        30.21S WCI  33
LIVINGSTON     PTCLDY    28  19  69 W5        30.24R WCI  22
MILES CITY     PTCLDY    39  23  53 W3        30.17S
* LAUREL APT   PTCLDY    41  16  36 SE5        N/A
* ROUNDUP APT  PTCLDY    37  16  42 N/A        N/A
* HYSHAM       N/A       43  15  32 W6         N/A
* LAME DEER    N/A       46  15  29 W5         N/A
* REED POINT   N/A       33  23  67 N/A        N/A
* ROSCOE HILL  N/A       40   9  28 S9         N/A   WCI  34
$$

REGIONAL REPORTS...DAKOTAS
CITY           SKY/WX    TMP DP  RH WIND       PRES   REMARKS
WILLISTON      CLEAR     36  32  85 NW8       30.11S WCI  30
DICKINSON      CLEAR     34  23  64 W9        30.10R WCI  27
CROSBY         CLOUDY    39  39 100 N15       30.11R WCI  31
TIOGA          FAIR      37  37 100 NW10      30.11R WCI  30
WATFORD CITY   CLEAR     36  32  85 SW9       30.09R WCI  29
BISMARCK       CLEAR     45  28  51 W9        30.07S
GRAND FORKS    CLEAR     46  36  68 W14       29.91R
FARGO          CLEAR     45  34  65 W7        29.95R
BUFFALO SD     CLEAR     37  21  52 W8        30.10S WCI  31
RAPID CITY     CLEAR     43  21  42 NW9       30.18R
$$

REGIONAL REPORTS...WYOMING/IDAHO/WASHINGTON
CITY           SKY/WX    TMP DP  RH WIND       PRES   REMARKS
GILLETTE       CLEAR     28  23  81 S9        30.22R WCI  19
SHERIDAN       PTCLDY    37  21  52 CALM      30.21S
CODY           PTCLDY    37  19  48 S7        30.24R WCI  32
YELLOWSTONE LA PTCLDY    25  19  78 CALM      30.33S
SALMON         PTCLDY    34  21  59 CALM      30.26R
MULLAN PASS    PTCLDY    36  21  54 S7        30.21S WCI  30
SPOKANE        PTCLDY    43  30  60 E7        30.16F

$$




USA.gov is the U.S. government's official web portal to all federal, state and local government web resources and services.